Location: Riedlingen
(48.1569°N, 9.4757°E)
Time: 22:11:23
(UTC+01:00)

Amateur Radio Satellites - All Passes

Search period start: 18 January 2018 21:41
Search period end: 19 January 2018 21:41
Location: Riedlingen, 48.1569°N, 9.4757°E

Satellite Date Start Highest point End Downlink Frequencies (MHz)
Time Altitude Azimuth
UNISAT 6 18 Jan 21:52:55 21:57:29 49° 99° (E) 22:02:02 437.425
LO-87 18 Jan 22:01:01 22:04:02 27° 68° (ENE) 22:07:06 145.935 - 145.965
DELFI C3 18 Jan 22:01:21 22:04:20 21° 267° (W) 22:07:19 145.870
EO-88 18 Jan 22:05:58 22:09:21 34° 263° (W) 22:12:44 145.990 - 145.960
FO-29 18 Jan 22:13:39 22:17:45 23° 301° (WNW) 22:21:47 435.910
ESTCUBE 1 18 Jan 22:34:48 22:39:14 56° 72° (ENE) 22:43:42 437.505/2401.250
nSIGHT-1 18 Jan 22:36:51 22:39:58 59° 151° (SSE) 22:43:06 .
ISS 18 Jan 22:38:51 22:41:59 45° 149° (SSE) 22:45:09 437.550
NO-84 18 Jan 22:43:26 22:45:51 24° 13° (NNE) 22:48:16 435.350 FM
YUBILEINY 18 Jan 22:45:59 22:53:57 40° 85° (E) 23:01:53 435.215
VELOX 1 18 Jan 22:49:01 22:51:16 14° 58° (ENE) 22:53:33 145.980
PRISM 18 Jan 22:56:06 23:00:03 47° 100° (E) 23:03:58 437.425
SPROUT 18 Jan 23:05:25 23:09:05 29° 66° (ENE) 23:12:48 437.525
AO-85 18 Jan 23:14:29 23:16:17 12° 252° (WSW) 23:18:07 145.980
TIGRISAT 18 Jan 23:15:17 23:19:29 33° 293° (WNW) 23:23:40 435.000
AIST 2D 18 Jan 23:15:57 23:19:14 37° 98° (E) 23:22:28 435.315
QB50P2 18 Jan 23:19:03 23:21:45 16° 90° (E) 23:24:26 145.880/145.840
UNISAT 6 18 Jan 23:30:11 23:33:53 24° 297° (WNW) 23:37:36 437.425
LO-87 18 Jan 23:34:29 23:37:25 24° 266° (W) 23:40:22 145.935 - 145.965
EO-79 18 Jan 23:50:11 23:53:57 29° 95° (E) 23:57:41 145.935-145.965
DUCHIFAT 1 18 Jan 23:52:38 23:56:06 24° 94° (E) 23:59:33 145.980
nSIGHT-1 19 Jan 00:13:08 00:16:13 47° 351° (N) 00:19:19 .
ESTCUBE 1 19 Jan 00:13:16 00:16:23 18° 269° (W) 00:19:31 437.505/2401.250
ISS 19 Jan 00:15:15 00:18:28 53° 347° (NNW) 00:21:42 437.550
NO-84 19 Jan 00:20:25 00:23:16 86° 208° (SSW) 00:26:12 435.350 FM
VELOX 1 19 Jan 00:22:43 00:27:08 81° 258° (WSW) 00:31:32 145.980
POLYITAN 1 19 Jan 00:24:07 00:28:25 64° 102° (ESE) 00:32:40 437.675
PRISM 19 Jan 00:32:06 00:35:00 19° 298° (WNW) 00:37:54 437.425
50 SAT 19 Jan 00:34:28 00:36:47 20° 67° (ENE) 00:39:08 437.505
SPROUT 19 Jan 00:41:09 00:44:55 31° 264° (W) 00:48:45 437.525
YUBILEINY 19 Jan 00:41:53 00:50:29 55° 287° (WNW) 00:59:07 435.215
UKube-1 19 Jan 00:42:08 00:45:35 24° 63° (ENE) 00:49:02 .
NANOSAT C BR1 19 Jan 00:42:20 00:46:39 87° 103° (ESE) 00:50:55 145.865
Gurwin Techsat 1B 19 Jan 00:42:40 00:44:08 11° 85° (E) 00:45:36 435.225
O/OREOS (USA 219) 19 Jan 00:46:33 00:50:29 30° 106° (ESE) 00:54:25 437.305
DX 1 19 Jan 00:47:33 00:51:37 41° 68° (ENE) 00:55:41 434.975-435.025
AIST 2D 19 Jan 00:49:47 00:52:08 17° 295° (WNW) 00:54:27 435.315
QB50P2 19 Jan 00:53:40 00:57:54 58° 288° (WNW) 01:02:06 145.880/145.840
BUGSAT 1 19 Jan 01:04:14 01:08:04 32° 96° (E) 01:11:53 437.445
Oscar 19 19 Jan 01:15:36 01:20:03 28° 94° (E) 01:24:28 437.125/150
EO-79 19 Jan 01:25:53 01:29:42 31° 293° (WNW) 01:33:29 145.935-145.965
DUCHIFAT 1 19 Jan 01:27:55 01:31:52 38° 292° (WNW) 01:35:48 145.980
AO-91 19 Jan 01:28:36 01:32:38 40° 99° (E) 01:37:04 145.960
BEESAT 19 Jan 01:39:27 01:42:48 19° 59° (ENE) 01:46:10 436.000
nSIGHT-1 19 Jan 01:49:36 01:52:43 49° 11° (N) 01:55:50 .
CUBESAT XI-V 19 Jan 01:51:54 01:53:28 12° 55° (NE) 01:55:02 437.345
ISS 19 Jan 01:52:06 01:55:17 46° 8° (N) 01:58:29 437.550
MOZHAYETS 4 19 Jan 01:52:34 01:56:47 35° 67° (ENE) 02:01:00
AO-7 19 Jan 01:55:16 01:56:47 11° 81° (E) 01:58:18 .
NO-84 19 Jan 01:59:06 02:00:00 11° 229° (SW) 02:00:53 435.350 FM
POLYITAN 1 19 Jan 02:01:01 02:03:43 16° 300° (WNW) 02:06:24 437.675
50 SAT 19 Jan 02:05:50 02:08:24 24° 264° (W) 02:10:59 437.505
UKube-1 19 Jan 02:17:20 02:21:23 40° 261° (W) 02:25:28 .
Gurwin Techsat 1B 19 Jan 02:19:38 02:25:00 75° 104° (ESE) 02:30:18 435.225
NANOSAT C BR1 19 Jan 02:19:52 02:21:42 13° 303° (WNW) 02:23:32 145.865
DX 1 19 Jan 02:24:30 02:27:56 23° 266° (W) 02:31:24 434.975-435.025
O/OREOS (USA 219) 19 Jan 02:25:40 02:29:49 35° 305° (NW) 02:33:58 437.305
ITUPSAT 1 19 Jan 02:33:59 02:38:38 54° 69° (ENE) 02:43:19 437.325
BUGSAT 1 19 Jan 02:39:41 02:43:20 29° 294° (WNW) 02:47:00 437.445
YUBILEINY 19 Jan 02:45:28 02:49:47 14° 313° (NW) 02:54:06 435.215
Oscar 19 19 Jan 02:54:37 02:59:32 45° 293° (WNW) 03:04:25 437.125/150
AO-91 19 Jan 03:05:29 03:08:57 25° 293° (WNW) 03:12:43 145.960
BEESAT 19 Jan 03:15:23 03:20:06 64° 258° (WSW) 03:24:53 436.000
CUBESAT XI-V 19 Jan 03:25:19 03:30:00 74° 74° (ENE) 03:34:43 437.345
nSIGHT-1 19 Jan 03:25:49 03:28:55 51° 211° (SSW) 03:32:02 .
ISS 19 Jan 03:28:38 03:31:54 67° 207° (SSW) 03:35:08 437.550
MOZHAYETS 4 19 Jan 03:29:54 03:33:57 30° 265° (W) 03:38:03
KKS-1 19 Jan 03:40:55 03:44:12 21° 61° (ENE) 03:47:28 437.445
AO-7 19 Jan 03:43:20 03:51:33 54° 102° (ESE) 03:59:40 .
ITAMSAT 1 19 Jan 03:55:03 04:00:01 43° 99° (E) 04:04:57 435.822/435.867
Gurwin Techsat 1B 19 Jan 04:00:38 04:04:22 20° 303° (WNW) 04:08:06 435.225
STARS 19 Jan 04:04:52 04:07:25 15° 58° (ENE) 04:09:57 437.465
ITUPSAT 1 19 Jan 04:13:12 04:16:46 21° 268° (W) 04:20:22 437.325
DOVE 4 19 Jan 04:59:18 05:03:28 49° 100° (E) 05:07:48 437.250
M-CUBED/EXP-1 PRIME 19 Jan 05:00:36 05:03:37 28° 102° (ESE) 05:06:32 437.505
CUBESAT XI-V 19 Jan 05:05:17 05:07:54 15° 272° (W) 05:10:32 437.345
ISS 19 Jan 05:06:16 05:07:52 13° 225° (SW) 05:09:27 437.550
SO-50 19 Jan 05:07:02 05:08:05 11° 108° (ESE) 05:09:09 436.795
CUTE-I 19 Jan 05:13:19 05:14:37 11° 85° (E) 05:15:55 437.470
KKS-1 19 Jan 05:16:07 05:20:25 51° 260° (W) 05:24:45 437.445
XW-2D 19 Jan 05:18:16 05:19:27 11° 88° (E) 05:20:37 145.860 - 145.880
STRAND 1 19 Jan 05:25:22 05:28:44 18° 57° (ENE) 05:32:06 437.568
XW-2B 19 Jan 05:34:41 05:37:09 16° 91° (E) 05:39:35 145.730 - 145.750
ITAMSAT 1 19 Jan 05:34:50 05:39:20 30° 297° (WNW) 05:43:49 435.822/435.867
AO-7 19 Jan 05:36:24 05:44:09 44° 303° (WNW) 05:51:52 .
STARS 19 Jan 05:38:52 05:43:13 72° 257° (WSW) 05:47:36 437.465
LilacSat-2 19 Jan 05:58:46 06:02:14 33° 97° (E) 06:05:40 437.200
XW-2C 19 Jan 06:04:05 06:07:35 34° 97° (E) 06:11:01 145.795 - 145.815
HO-68 19 Jan 06:15:17 06:20:52 24° 90° (E) 06:26:25 435.675
RS-15 19 Jan 06:33:32 06:38:51 14° 92° (E) 06:44:07 29.354- 29.394
M-CUBED/EXP-1 PRIME 19 Jan 06:35:13 06:37:55 21° 301° (WNW) 06:40:31 437.505
DOVE 4 19 Jan 06:37:47 06:40:54 20° 297° (WNW) 06:44:06 437.250
XW-2F 19 Jan 06:42:40 06:46:26 90° 286° (WNW) 06:50:10 145.980 - 146.000
FO-29 19 Jan 06:42:52 06:49:07 41° 66° (ENE) 06:54:42 435.910
SO-50 19 Jan 06:43:16 06:47:43 77° 125° (SE) 06:52:16 436.795
KAITUO 1B 19 Jan 06:45:09 06:48:52 74° 102° (ESE) 06:52:33 145.475/437.950
CUTE-I 19 Jan 06:50:15 06:55:36 74° 104° (ESE) 07:00:55 437.470
XW-2D 19 Jan 06:50:18 06:54:03 66° 286° (WNW) 06:57:46 145.860 - 145.880
NUDT-PHONESAT 19 Jan 07:00:35 07:04:16 77° 285° (WNW) 07:07:56 437.300
AAUSAT CUBESAT 2 19 Jan 07:01:40 07:03:22 12° 88° (E) 07:05:02 437.432
STRAND 1 19 Jan 07:02:14 07:07:19 78° 256° (WSW) 07:12:28 437.568
CUBEBUG 2 19 Jan 07:06:27 07:10:51 36° 96° (E) 07:15:13 437.445
XW-2B 19 Jan 07:07:56 07:11:33 43° 289° (WNW) 07:15:06 145.730 - 145.750
SEEDS 19 Jan 07:11:09 07:14:58 34° 96° (E) 07:18:46 437.485
UWE-3 19 Jan 07:17:02 07:21:02 27° 93° (E) 07:24:58 435.000/436.395/437.385
CUTE 1.7 + AOD 2 19 Jan 07:18:49 07:23:02 67° 101° (E) 07:27:13 437.475
FALCONSAT 3 19 Jan 07:20:06 07:21:22 11° 180° (S) 07:22:37 435.103
AO-7 19 Jan 07:30:54 07:34:47 14° 327° (NNW) 07:38:41 .
LilacSat-2 19 Jan 07:33:20 07:36:20 22° 295° (WNW) 07:39:19 437.200
XW-2C 19 Jan 07:38:40 07:41:34 21° 295° (WNW) 07:44:26 145.795 - 145.815
ZACube-1 19 Jan 07:46:03 07:50:00 28° 94° (E) 07:53:53 437.345
AO-73 19 Jan 07:54:15 07:58:16 29° 94° (E) 08:02:11 145.935
XW-2A 19 Jan 07:57:19 08:00:28 35° 98° (E) 08:03:34 145.665 - 145.685
HO-68 19 Jan 08:02:09 08:09:19 77° 290° (WNW) 08:16:28 435.675
KAITUO 1B 19 Jan 08:21:07 08:22:16 11° 300° (WNW) 08:23:25 145.475/437.950
SO-50 19 Jan 08:25:04 08:28:41 23° 327° (NNW) 08:32:22 436.795
FO-29 19 Jan 08:27:43 08:34:11 42° 262° (W) 08:39:58 435.910
Oscar 11 19 Jan 08:30:00 08:34:07 40° 98° (E) 08:38:11 .
CUTE-I 19 Jan 08:31:19 08:35:05 20° 303° (WNW) 08:38:51 437.470
AAUSAT CUBESAT 2 19 Jan 08:35:11 08:39:18 70° 285° (WNW) 08:43:22 437.432
RS-15 19 Jan 08:36:36 08:48:28 58° 115° (ESE) 09:00:09 29.354- 29.394
TIGRISAT 19 Jan 08:40:25 08:44:35 42° 69° (ENE) 08:48:52 435.000
CUBEBUG 2 19 Jan 08:43:11 08:47:22 31° 294° (WNW) 08:51:32 437.445
STRAND 1 19 Jan 08:46:00 08:47:22 11° 275° (W) 08:48:43 437.568
SEEDS 19 Jan 08:47:04 08:50:32 26° 294° (WNW) 08:53:58 437.485
YUBILEINY 19 Jan 08:51:07 08:57:58 25° 58° (ENE) 09:04:47 435.215
UWE-3 19 Jan 08:53:11 08:57:34 40° 291° (WNW) 09:01:54 435.000/436.395/437.385
UNISAT 6 19 Jan 08:54:50 08:59:12 63° 72° (ENE) 09:03:43 437.425
CUTE 1.7 + AOD 2 19 Jan 08:55:56 08:58:22 15° 300° (WNW) 09:00:47 437.475
Max Valier Satellite 19 Jan 09:07:41 09:09:22 13° 89° (E) 09:11:02 145.860
O/OREOS (USA 219) 19 Jan 09:13:50 09:16:52 18° 46° (NE) 09:19:54 437.305
ZACube-1 19 Jan 09:22:06 09:26:20 37° 292° (WNW) 09:30:30 437.345
AO-73 19 Jan 09:30:21 09:34:31 35° 292° (WNW) 09:38:36 145.935
XW-2A 19 Jan 09:30:40 09:32:54 17° 296° (WNW) 09:35:06 145.665 - 145.685
EO-88 19 Jan 09:31:25 09:33:36 15° 91° (E) 09:35:47 145.990 - 145.960
DELFI C3 19 Jan 09:33:11 09:36:50 36° 97° (E) 09:40:28 145.870
PRISM 19 Jan 09:48:16 09:52:14 54° 72° (ENE) 09:56:12 437.425
POLYITAN 1 19 Jan 09:48:17 09:48:49 10° 55° (NE) 09:49:22 437.675
HO-68 19 Jan 09:51:08 09:56:00 20° 311° (NW) 10:00:51 435.675
PCSat 19 Jan 09:51:36 09:55:57 25° 109° (ESE) 10:00:19 145.827
AIST 2D 19 Jan 09:53:24 09:56:18 24° 68° (ENE) 09:59:12 435.315
NANOSAT C BR1 19 Jan 10:04:27 10:06:25 13° 58° (ENE) 10:08:25 145.865
Oscar 11 19 Jan 10:06:34 10:10:03 24° 296° (WNW) 10:13:30 .
SO-50 19 Jan 10:09:38 10:10:49 11° 352° (N) 10:12:01 436.795
QB50P2 19 Jan 10:14:51 10:17:57 20° 62° (ENE) 10:21:03 145.880/145.840
TIGRISAT 19 Jan 10:17:53 10:21:27 23° 268° (W) 10:25:06 435.000
UNISAT 6 19 Jan 10:33:38 10:36:22 16° 271° (W) 10:39:09 437.425
Max Valier Satellite 19 Jan 10:39:52 10:43:32 56° 287° (WNW) 10:47:09 145.860
EO-79 19 Jan 10:45:41 10:49:29 34° 68° (ENE) 10:53:21 145.935-145.965
YUBILEINY 19 Jan 10:47:16 10:56:05 88° 261° (W) 11:04:47 435.215
DUCHIFAT 1 19 Jan 10:47:30 10:51:05 28° 66° (ENE) 10:54:43 145.980
RS-15 19 Jan 10:48:58 11:01:08 60° 321° (NW) 11:13:01 29.354- 29.394
BEESAT 3 19 Jan 10:51:13 10:55:12 74° 125° (SE) 10:59:11 437.485
O/OREOS (USA 219) 19 Jan 10:52:20 10:56:49 75° 247° (WSW) 11:01:17 437.305
LO-87 19 Jan 10:57:11 10:59:57 20° 93° (E) 11:02:42 145.935 - 145.965
Oscar 19 19 Jan 11:01:08 11:02:28 11° 50° (NE) 11:03:46 437.125/150
EO-88 19 Jan 11:03:58 11:07:27 44° 289° (WNW) 11:10:55 145.990 - 145.960
DELFI C3 19 Jan 11:08:19 11:11:22 22° 295° (WNW) 11:14:25 145.870
POLYITAN 1 19 Jan 11:19:35 11:23:48 75° 75° (ENE) 11:28:05 437.675
PRISM 19 Jan 11:25:21 11:27:50 16° 269° (W) 11:30:19 437.425
AIST 2D 19 Jan 11:26:24 11:29:23 25° 265° (W) 11:32:23 435.315
PCSat 19 Jan 11:33:36 11:38:57 61° 309° (NW) 11:44:21 145.827
BEESAT 2 19 Jan 11:33:54 11:37:51 57° 123° (ESE) 11:41:50 435.950
NANOSAT C BR1 19 Jan 11:37:18 11:41:31 82° 256° (WSW) 11:45:47 145.865
QB50P2 19 Jan 11:49:18 11:53:24 49° 260° (W) 11:57:33 145.880/145.840
SO-50 19 Jan 11:51:11 11:53:21 13° 17° (NNE) 11:55:32 436.795
AO-85 19 Jan 11:51:44 11:53:50 14° 109° (ESE) 11:56:01 145.980
BUGSAT 1 19 Jan 11:57:04 12:00:46 35° 68° (ENE) 12:04:33 437.445
ESTCUBE 1 19 Jan 12:00:04 12:04:35 75° 103° (ESE) 12:09:03 437.505/2401.250
Gurwin Techsat 1B 19 Jan 12:05:43 12:10:09 28° 61° (ENE) 12:14:34 435.225
VELOX 1 19 Jan 12:10:14 12:12:41 15° 89° (E) 12:15:08 145.980
EO-79 19 Jan 12:21:44 12:25:17 26° 265° (W) 12:28:54 145.935-145.965
SPROUT 19 Jan 12:22:26 12:26:21 33° 96° (E) 12:30:15 437.525
DUCHIFAT 1 19 Jan 12:22:53 12:26:40 32° 264° (W) 12:30:29 145.980
LO-87 19 Jan 12:30:08 12:33:25 32° 291° (WNW) 12:36:41 145.935 - 145.965
AO-91 19 Jan 12:30:09 12:33:20 41° 71° (ENE) 12:36:39 145.960
BEESAT 3 19 Jan 12:30:09 12:33:09 20° 326° (NW) 12:36:10 437.485
Oscar 19 19 Jan 12:35:38 12:40:44 59° 70° (ENE) 12:45:51 437.125/150
YUBILEINY 19 Jan 12:45:35 12:51:37 21° 284° (WNW) 12:57:38 435.215
AO-7 19 Jan 12:55:41 13:02:27 29° 48° (NE) 13:09:13 .
POLYITAN 1 19 Jan 12:58:19 13:00:06 12° 272° (W) 13:01:54 437.675
RS-15 19 Jan 13:05:41 13:16:40 36° 352° (N) 13:27:16 29.354- 29.394
BEESAT 2 19 Jan 13:12:33 13:15:52 24° 323° (NW) 13:19:11 435.950
PCSat 19 Jan 13:19:50 13:23:29 18° 332° (NNW) 13:27:08 145.827
AO-85 19 Jan 13:29:33 13:33:34 74° 310° (NW) 13:37:56 145.980
SO-50 19 Jan 13:30:51 13:35:10 35° 40° (NE) 13:39:30 436.795
BUGSAT 1 19 Jan 13:32:52 13:36:12 24° 266° (W) 13:39:35 437.445
ESTCUBE 1 19 Jan 13:38:13 13:40:49 15° 302° (WNW) 13:43:25 437.505/2401.250
ITAMSAT 1 19 Jan 13:39:45 13:42:56 17° 55° (NE) 13:46:08 435.822/435.867
Gurwin Techsat 1B 19 Jan 13:44:41 13:49:50 50° 260° (W) 13:55:01 435.225
VELOX 1 19 Jan 13:45:12 13:49:35 67° 287° (WNW) 13:53:56 145.980
SPROUT 19 Jan 13:58:28 14:02:09 28° 294° (WNW) 14:05:49 437.525
UKube-1 19 Jan 14:00:38 14:04:10 24° 94° (E) 14:07:41 .
DX 1 19 Jan 14:07:43 14:11:55 45° 99° (E) 14:16:05 434.975-435.025
AO-91 19 Jan 14:08:28 14:10:09 13° 270° (W) 14:11:52 145.960
Oscar 19 19 Jan 14:16:28 14:20:25 22° 269° (W) 14:24:24 437.125/150
M-CUBED/EXP-1 PRIME 19 Jan 14:17:06 14:18:38 12° 53° (NE) 14:20:09 437.505
ITUPSAT 1 19 Jan 14:34:03 14:34:25 10° 85° (E) 14:34:46 437.325
AO-7 19 Jan 14:45:57 14:54:20 87° 250° (WSW) 15:02:47 .
50 SAT 19 Jan 14:47:39 14:50:44 55° 287° (WNW) 14:53:46 437.505
PCSat 19 Jan 15:08:56 15:09:15 10° 358° (N) 15:09:35 145.827
SO-50 19 Jan 15:11:16 15:15:44 44° 240° (WSW) 15:20:14 436.795
AO-85 19 Jan 15:11:55 15:14:48 17° 333° (NNW) 15:17:49 145.980
BEESAT 19 Jan 15:12:08 15:16:03 25° 94° (E) 15:19:58 436.000
ITAMSAT 1 19 Jan 15:16:32 15:21:43 87° 257° (WSW) 15:26:56 435.822/435.867
CUBESAT XI-V 19 Jan 15:19:39 15:22:05 14° 88° (E) 15:24:29 437.345
MOZHAYETS 4 19 Jan 15:20:23 15:24:54 49° 99° (E) 15:29:23
RS-15 19 Jan 15:21:28 15:32:52 45° 26° (NNE) 15:43:41 29.354- 29.394
UKube-1 19 Jan 15:36:18 15:40:17 38° 293° (WNW) 15:44:17 .
DX 1 19 Jan 15:44:29 15:47:50 22° 298° (WNW) 15:51:11 434.975-435.025
M-CUBED/EXP-1 PRIME 19 Jan 15:48:06 15:52:28 81° 68° (ENE) 15:56:32 437.505
XW-2D 19 Jan 16:03:30 16:04:27 11° 59° (ENE) 16:05:25 145.860 - 145.880
ITUPSAT 1 19 Jan 16:08:11 16:13:03 77° 104° (ESE) 16:17:52 437.325
DOVE 4 19 Jan 16:08:14 16:12:31 74° 74° (ENE) 16:16:42 437.250
XW-2B 19 Jan 16:19:35 16:21:49 15° 62° (ENE) 16:24:05 145.730 - 145.750
CUTE-I 19 Jan 16:36:58 16:41:24 28° 62° (ENE) 16:45:51 437.470
AO-7 19 Jan 16:42:16 16:48:15 21° 271° (W) 16:54:18 .
LilacSat-2 19 Jan 16:43:49 16:47:10 28° 67° (ENE) 16:50:30 437.200
HO-68 19 Jan 16:48:09 16:54:00 28° 54° (NE) 16:59:51 435.675
XW-2C 19 Jan 16:48:27 16:51:48 29° 68° (ENE) 16:55:10 145.795 - 145.815
BEESAT 19 Jan 16:49:26 16:54:01 45° 292° (WNW) 16:58:34 436.000
PCSat 19 Jan 16:51:57 16:55:09 15° 25° (NNE) 16:58:21 145.827
CUBESAT XI-V 19 Jan 16:55:22 17:00:00 75° 287° (WNW) 17:04:35 437.345
MOZHAYETS 4 19 Jan 16:58:08 17:01:45 23° 298° (WNW) 17:05:21
ITAMSAT 1 19 Jan 16:59:40 17:01:57 13° 273° (W) 17:04:15 435.822/435.867
KKS-1 19 Jan 17:03:36 17:07:09 23° 93° (E) 17:10:40 437.445
NO-84 19 Jan 17:15:46 17:17:03 12° 132° (SE) 17:18:19 435.350 FM
STARS 19 Jan 17:25:29 17:28:12 16° 90° (E) 17:30:54 437.465
M-CUBED/EXP-1 PRIME 19 Jan 17:25:29 17:27:13 12° 264° (W) 17:28:55 437.505
XW-2F 19 Jan 17:26:08 17:29:57 71° 74° (ENE) 17:33:44 145.980 - 146.000
BEESAT 3 19 Jan 17:27:29 17:30:40 23° 37° (NE) 17:33:48 437.485
KAITUO 1B 19 Jan 17:27:47 17:31:29 56° 73° (ENE) 17:35:11 145.475/437.950
XW-2D 19 Jan 17:34:10 17:38:01 84° 257° (WSW) 17:41:52 145.860 - 145.880
RS-15 19 Jan 17:34:48 17:46:41 84° 235° (SW) 17:57:52 29.354- 29.394
NUDT-PHONESAT 19 Jan 17:42:10 17:45:53 78° 76° (ENE) 17:49:38 437.300
ITUPSAT 1 19 Jan 17:47:15 17:50:17 17° 303° (WNW) 17:53:19 437.325
DOVE 4 19 Jan 17:49:07 17:50:43 12° 272° (W) 17:52:19 437.250
XW-2B 19 Jan 17:51:49 17:55:35 55° 260° (W) 17:59:22 145.730 - 145.750
AAUSAT CUBESAT 2 19 Jan 17:55:03 17:57:17 14° 60° (ENE) 17:59:30 437.432
SEEDS 19 Jan 18:05:48 18:09:42 37° 69° (ENE) 18:13:36 437.485
CUBEBUG 2 19 Jan 18:07:43 18:11:51 42° 69° (ENE) 18:16:09 437.445
BEESAT 2 19 Jan 18:10:55 18:13:59 20° 34° (NE) 18:17:00 435.950
CUTE 1.7 + AOD 2 19 Jan 18:14:20 18:18:36 73° 74° (ENE) 18:22:52 437.475
CUTE-I 19 Jan 18:16:03 18:21:12 50° 260° (W) 18:26:23 437.470
UWE-3 19 Jan 18:17:09 18:21:05 32° 66° (ENE) 18:25:08 435.000/436.395/437.385
LilacSat-2 19 Jan 18:18:07 18:21:24 26° 265° (W) 18:24:42 437.200
XW-2C 19 Jan 18:22:45 18:25:58 25° 266° (W) 18:29:12 145.795 - 145.815
XW-2A 19 Jan 18:31:40 18:34:23 22° 67° (ENE) 18:37:06 145.665 - 145.685
HO-68 19 Jan 18:33:59 18:41:09 74° 255° (WSW) 18:48:20 435.675
PCSat 19 Jan 18:34:39 18:39:55 48° 48° (NE) 18:45:09 145.827
CUBESAT XI-V 19 Jan 18:35:04 18:36:33 11° 305° (NW) 18:38:01 437.345
AO-85 19 Jan 18:36:49 18:39:32 15° 23° (NNE) 18:42:22 145.980
KKS-1 19 Jan 18:39:39 18:43:53 43° 291° (WNW) 18:48:05 437.445
ZACube-1 19 Jan 18:44:51 18:48:49 33° 67° (ENE) 18:52:53 437.345
NO-84 19 Jan 18:50:51 18:53:49 88° 328° (NNW) 18:56:41 435.350 FM
AO-73 19 Jan 18:52:42 18:56:43 34° 67° (ENE) 19:00:50 145.935
STARS 19 Jan 19:00:34 19:04:56 62° 288° (WNW) 19:09:17 437.465
XW-2F 19 Jan 19:03:31 19:04:29 11° 272° (W) 19:05:28 145.980 - 146.000
KAITUO 1B 19 Jan 19:03:58 19:05:47 13° 271° (W) 19:07:37 145.475/437.950
BEESAT 3 19 Jan 19:04:37 19:08:29 57° 237° (WSW) 19:12:17 437.485
STRAND 1 19 Jan 19:09:20 19:13:43 28° 94° (E) 19:18:05 437.568
Oscar 11 19 Jan 19:27:47 19:31:59 48° 71° (ENE) 19:36:11 .
AAUSAT CUBESAT 2 19 Jan 19:28:05 19:32:12 70° 258° (WSW) 19:36:20 437.432
FO-29 19 Jan 19:33:38 19:37:24 20° 90° (E) 19:41:08 435.910
SEEDS 19 Jan 19:42:04 19:45:29 24° 267° (W) 19:48:55 437.485
CUBEBUG 2 19 Jan 19:45:09 19:48:39 23° 268° (W) 19:52:16 437.445
BEESAT 2 19 Jan 19:48:07 19:52:09 74° 234° (SW) 19:56:06 435.950
RS-15 19 Jan 19:48:38 19:57:16 25° 260° (W) 20:05:36 29.354- 29.394
Max Valier Satellite 19 Jan 19:50:42 19:51:47 11° 59° (ENE) 19:52:52 145.860
CUTE 1.7 + AOD 2 19 Jan 19:53:01 19:54:56 13° 272° (W) 19:56:50 437.475
UWE-3 19 Jan 19:53:33 19:57:30 32° 265° (W) 20:01:35 435.000/436.395/437.385
XW-2A 19 Jan 20:04:01 20:06:57 26° 264° (W) 20:09:56 145.665 - 145.685
EO-88 19 Jan 20:12:58 20:14:36 13° 61° (ENE) 20:16:16 145.990 - 145.960
AO-85 19 Jan 20:16:26 20:21:05 46° 44° (NE) 20:26:02 145.980
PCSat 19 Jan 20:18:20 20:23:10 33° 248° (WSW) 20:27:57 145.827
ZACube-1 19 Jan 20:21:08 20:25:05 31° 265° (W) 20:29:08 437.345
DELFI C3 19 Jan 20:21:29 20:25:00 33° 69° (ENE) 20:28:33 145.870
HO-68 19 Jan 20:26:17 20:30:07 15° 275° (W) 20:33:56 435.675
NO-84 19 Jan 20:28:51 20:31:16 23° 348° (NNW) 20:33:38 435.350 FM
AO-73 19 Jan 20:29:04 20:32:58 29° 266° (W) 20:36:56 145.935
UNISAT 6 19 Jan 20:44:56 20:46:23 11° 86° (E) 20:47:51 437.425
STRAND 1 19 Jan 20:48:11 20:53:05 45° 292° (WNW) 20:57:57 437.568
Oscar 11 19 Jan 21:05:11 21:08:22 20° 269° (W) 21:11:34 .
FO-29 19 Jan 21:17:52 21:23:03 59° 290° (WNW) 21:28:08 435.910
Max Valier Satellite 19 Jan 21:21:16 21:25:01 78° 258° (WSW) 21:28:47 145.860
ESTCUBE 1 19 Jan 21:28:26 21:30:57 15° 58° (ENE) 21:33:29 437.505/2401.250
LO-87 19 Jan 21:36:58 21:39:06 15° 63° (ENE) 21:41:14 145.935 - 145.965
